Find Starlink 34676

NORAD ID: 64853 Int'l Des: 2025-152 Owner: SPXS Country: US Constellation: starlink operational
LEOCIRCULARRETROGRADESSO

当前视图

正在加载3D地球...

关于 Starlink 34676

正在加载描述...

即将过境

Passes for default location (London). Set your location on the main map for personalized predictions.

高度历史

Loading altitude history...

两行轨道根数

1 64853U 25152M 26150.02930409 .00008707 00000-0 60646-3 0 9999
2 64853 97.4273 5.1481 0001462 40.5817 319.5519 15.05666377 47658
Epoch: May 30, 2026 • Age: 9 hours

当前状态

高度 568.2 km
速度 7.58 km/s
星下点 -48.38°S, 24.88°W
发射日期 Jul 19, 2025
运行时间 0.8 years
类型 internet

技术详情

分类 Payload
质量 575.00 kg
干质量 530.00 kg
总质量 575.00 kg
长度 0.30 m
直径 4.10 m
跨度 29.00 m
形状 Box + pan
制造商 SPXS
平台类型 Starlink V2MO
阶段状态 In Orbit
所有者/国家 SPXS/US

Most Searched